Regional Weather Roundup
Issued by NWS

Home | Current Version | Previous Version | Graphics & Text | Print | Product List | Glossary On
Versions: 1 2 3 4 5 6 7 8 9 10 11 12 13 14 15 16 17 18 19 20 21 22 23 24 25 26 27 28 29 30 31 32 33 34 35 36 37 38 39 40 41 42 43 44 45 46 47 48 49 50
000
ASUS45 KCYS 180710
RWRWY

WYOMING REGIONAL WEATHER ROUNDUP
NATIONAL WEATHER SERVICE CHEYENNE WY
1200 AM MST THU JAN 18 2018

NOTE:  "FAIR" INDICATES FEW OR NO CLOUDS BELOW 12,000 FEET
WITH NO SIGNIFICANT WEATHER AND/OR OBSTRUCTIONS TO VISIBILITY.

WYZ001-180800-
YELLOWSTONE NATIONAL PARK

CITY           SKY/WX    TMP DP  RH WIND       PRES   REMARKS
LK YELLOWSTONE   N/A     23  21  92 CALM      30.30F
W YELLOWSTONE  NOT AVBL

$$
WYZ002>013-054>058-071-098>099-180800-
NORTHERN WYOMING

CITY           SKY/WX    TMP DP  RH WIND       PRES   REMARKS
JACKSON        FAIR       7   4  87 CALM      30.33F
CODY           FAIR      44  16  32 SW7       30.12S
GREYBULL       FAIR      10   7  87 CALM      30.15F
WORLAND        FAIR       9   7  92 E6        30.15S WCI  -1
SHERIDAN       FAIR      29  17  61 S3        29.99F
BUFFALO        FAIR      43  11  27 S6        30.03F
GILLETTE         N/A    N/A N/A N/A MISG      30.02F
HULETT         FAIR      37  21  52 SW15G21   30.03F WCI  28
NEWCASTLE      FAIR      30  18  59 E5        30.09F WCI  25

$$
WYZ014>020-022>026-101>103-180800-
CENTRAL WYOMING

CITY           SKY/WX    TMP DP  RH WIND       PRES   REMARKS
BIG PINEY      FAIR      13  11  92 E5        30.32S WCI   5
PINEDALE       FAIR      10   9  92 NW8       30.32R WCI  -1
DUBOIS         FAIR      30  12  47 NW20      30.20S WCI  18
LANDER         FAIR      20  15  81 NW8       30.17S WCI  10
RIVERTON       FAIR      18  11  74 CALM      30.17F
CASPER         FAIR      37  22  54 SW24G35   30.15F WCI  26
DOUGLAS        FAIR      23  18  81 CALM      30.11F

$$
WYZ021-027>030-104>119-180800-
SOUTHERN WYOMING

CITY           SKY/WX    TMP DP  RH WIND       PRES   REMARKS
EVANSTON       FAIR      28  24  85 S6        30.32S WCI  22
FORT BRIDGER   FAIR      32  24  72 SW9       30.34S WCI  24
ROCK SPRINGS   FAIR      29  23  78 SW12      30.30S WCI  19
DIXON            N/A     24  15  66 CALM      30.38S
RAWLINS        FAIR      27  16  63 SW7       30.28S WCI  19
SARATOGA       FAIR      21  14  73 SE5       30.31S WCI  15
LARAMIE        FAIR      21  13  71 S8        30.22F WCI  11
CHEYENNE       FAIR      29  13  51 VRB3      30.18F
TORRINGTON     FAIR      20  18  92 E5        30.13F WCI  13

$$



USA.gov is the U.S. government's official web portal to all federal, state and local government web resources and services.